User: anonymous   Login
Location: Unspecified
(0.0000°N, 0.0000°E)
Time: 09:37:35
(UTC+00:00)
Language:

Kiku-4 - Orbit

View from above orbital plane
View from above orbital plane
View from above satellite
View from above satellite

Ground track
Ground track

The orbit data is extracted from the following two-line orbital elements,

1 13492U 82087A   17295.92821039 -.00000098 +00000-0 +20973-4 0  9995
2 13492 044.6149 109.6971 0010925 008.3846 146.6324 13.70968426759045
Epoch (UTC): 22 October 2017 22:16:37
Eccentricity: 0.0010925
inclination: 44.6149°
perigee height: 988 km
apogee height: 1004 km
right ascension of ascending node: 109.6971°
argument of perigee: 8.3846°
revolutions per day: 13.70968426
mean anomaly at epoch: 146.6324°
orbit number at epoch: 75904

The dashed part of the orbit path shows where the satellite is in the earth's shadow,  

DLR